Find STARLINK-37798

NORAD ID: 799500942 Int'l Des: 2026-130V Constellation: starlink operational

当前视图

正在加载3D地球...

About STARLINK-37798

STARLINK-37798 (NORAD 799500942) is a starlink constellation satellite launched Jun 7, 2026

关于 STARLINK-37798

正在加载描述...

即将过境

Passes for default location (London). Set your location on the main map for personalized predictions.

高度历史

Loading altitude history...

两行轨道根数

1 99999C 2026130V 26163.06923610 .00309660 00000-0 466720-4 0 1630
2 99999 97.2792 182.7827 0011355 272.6797 233.8555 16.04347363 12
Epoch: Jun 12, 2026 • Age: 6 hours